Torna al catalogo

ARIANE 5 R/B

AttivoHEO
NORAD 35944·ROCKET BODY·🇫🇷 France

Lanciato Sep 30, 2009 da Guiana Space Centre

Loading…

Prossimi Passaggi (prossime 24 ore)

TLE

AggiornatoSource: Space-Track

Epoca: Sep 14, 2026, 09:57 UTC

1 35944U 09054C   26257.41506435  .00011535  00000-0  12014-2 0  9998
2 35944   3.4465 108.1069 6831737 250.4202  28.4893  2.88757161156375

Traccia ARIANE 5 R/B in tempo reale con AllMySat

Download on the App Store